Wind_Speed
70 70 70 70 71 72 73 74 75 76 77 78 79 80 81 82 82 82 82 82 83 84 85 87 88 89 89 90 90 91 92 93 93 93 94 96 97 97 98 100 101 102
74 74 73 74 74 75 76 76 77 78 79 80 81 83 84 84 85 85 85 85 86 87 88 89 91 92 92 92 93 94 95 95 96 97 97 98 100 101 101 102 103 105
76 76 76 77 78 78 79 79 79 80 81 82 83 84 85 86 87 87 87 87 88 89 90 91 93 94 94 95 95 96 97 98 99 100 100 101 102 103 104 104 105 106
79 79 79 80 80 81 81 82 82 83 83 84 85 86 87 88 88 89 89 89 90 90 92 93 95 96 97 97 98 99 100 101 102 102 103 103 104 105 106 106 107 108
80 81 81 81 82 82 83 83 84 85 85 86 87 87 88 89 90 91 91 91 91 92 93 95 96 98 99 99 100 101 101 103 103 104 105 105 105 106 107 108 109 110
81 81 81 82 83 83 83 83 84 85 86 87 88 88 90 91 92 93 93 93 93 93 95 97 98 99 100 101 102 102 103 105 106 106 106 107 107 108 109 110 111 112
80 81 82 82 82 83 83 83 84 85 86 87 88 89 91 93 94 95 95 95 95 95 97 98 100 101 102 103 103 104 105 106 107 107 107 108 108 108 108 109 110 111
82 82 83 84 84 84 84 85 85 86 86 87 88 90 91 93 94 95 96 96 96 96 97 98 99 100 101 102 103 103 104 105 106 106 107 107 108 108 108 109 109 110
82 83 84 84 85 85 86 86 87 87 87 88 89 90 91 92 93 94 95 95 95 95 96 97 98 99 100 101 102 103 103 104 106 106 107 107 107 108 109 109 110 111
81 81 82 83 84 85 85 86 87 88 88 88 89 90 91 91 92 94 94 95 95 96 96 97 98 99 100 101 102 103 103 104 105 106 107 107 107 108 109 110 111 112
81 82 83 83 84 85 86 87 88 89 90 90 91 91 92 93 94 95 96 96 96 97 98 99 99 100 101 102 103 104 104 105 106 108 109 109 108 109 110 111 112 113
84 84 85 85 86 87 88 89 90 90 91 92 93 93 94 95 96 97 98 98 98 99 100 100 101 102 103 104 105 106 107 107 108 109 111 111 111 112 112 113 115 116
86 87 87 88 89 90 90 91 92 93 94 94 95 96 97 97 98 99 100 100 101 101 102 103 104 105 106 107 108 108 109 109 110 111 112 113 114 115 115 116 117 118
89 90 90 91 91 92 93 93 94 95 96 97 97 98 99 99 100 101 102 103 103 104 105 105 106 107 108 109 110 111 111 111 112 113 113 114 116 116 117 118 119 120
92 92 92 93 93 94 95 95 96 97 98 98 99 99 100 101 101 102 103 104 105 106 107 107 108 109 110 112 113 113 113 114 114 115 115 116 117 118 119 120 121 122
94 94 94 95 95 96 97 97 98 99 99 100 100 101 102 103 103 104 105 106 107 108 109 110 111 111 112 113 114 115 116 116 117 117 118 119 119 120 121 122 123 124
96 96 96 96 96 97 98 99 99 100 101 102 102 103 104 105 106 107 108 109 110 111 112 113 114 114 115 116 117 117 118 119 120 120 121 122 122 123 124 124 125 125
99 99 98 98 98 99 99 100 101 102 102 103 104 105 106 107 108 109 110 112 113 114 115 116 117 118 119 119 120 120 121 122 122 123 123 124 125 125 126 127 127 127
101 101 101 102 101 102 102 103 103 104 105 106 106 107 108 109 111 112 113 114 116 117 118 119 120 121 122 122 123 123 124 125 125 126 126 127 127 128 128 128 128 127
103 103 104 104 104 104 105 105 106 107 107 108 109 110 111 113 114 115 116 118 119 120 121 122 123 124 125 126 127 127 128 128 128 129 129 128 128 128 127 127 126 125
106 106 106 107 107 107 108 108 109 109 110 111 112 113 114 116 117 118 119 121 122 123 124 125 126 127 127 128 128 128 128 128 128 128 127 126 126 125 124 123 122 120
108 109 109 110 110 110 111 112 112 113 114 114 115 116 118 119 120 121 122 122 123 124 124 124 125 125 125 126 126 126 126 126 125 124 123 122 122 120 119 118 116 115
111 112 112 113 113 114 114 115 116 117 118 118 119 120 120 121 121 121 121 121 121 120 121 120 121 121 122 122 123 123 123 122 121 120 119 118 117 116 115 113 111 109
113 114 114 115 116 116 117 118 120 121 121 121 120 120 119 119 119 118 117 117 116 116 117 117 118 118 119 119 119 119 118 118 117 116 115 114 113 112 110 109 106 104
114 115 116 117 118 120 121 121 122 121 120 119 118 117 117 116 115 113 112 112 112 112 112 113 114 114 115 114 113 113 112 111 111 110 109 108 108 106 105 103 100 98
116 117 118 120 120 121 121 120 119 118 116 115 114 112 111 109 108 107 107 106 107 107 107 107 107 107 106 105 104 102 102 102 101 101 101 101 100 99 98 96 94 93
Wind_Direction
275 276 277 277 278 278 279 280 281 281 282 282 283 283 283 284 284 285 285 286 287 288 289 289 290 291 292 293 293 294 295 295 296 297 298 298 299 299 300 300 301 301
274 275 277 278 278 279 279 279 280 281 281 282 282 283 283 284 284 285 285 286 287 287 288 289 290 291 292 293 294 295 295 295 296 297 297 298 298 299 299 300 300 301
273 275 276 277 278 279 279 280 280 280 281 281 282 282 283 283 284 285 285 286 287 288 289 290 290 291 292 293 294 294 295 295 296 296 297 297 298 298 299 299 300 300
272 274 275 277 277 278 279 280 280 281 281 281 282 282 283 283 284 285 285 286 287 288 289 290 290 291 292 293 293 294 294 295 295 296 296 297 298 298 299 299 300 300
271 273 274 275 276 277 278 279 280 280 281 282 282 283 284 284 285 285 286 286 287 288 289 290 290 291 292 292 293 294 294 295 295 296 296 297 298 298 299 299 300 300
271 273 274 275 276 277 277 278 279 280 281 281 282 283 284 285 285 286 286 287 288 288 289 290 290 291 292 292 293 294 294 295 295 296 296 297 297 298 299 299 299 299
272 273 274 275 276 277 277 278 279 279 280 281 282 283 284 285 285 286 287 287 288 289 289 290 290 291 292 292 293 294 294 295 295 296 296 297 297 298 298 298 299 299
273 274 275 276 277 277 278 279 279 280 280 281 281 282 283 284 285 285 286 287 288 288 289 289 290 291 291 292 293 293 294 294 295 295 296 296 297 298 298 298 298 299
275 275 276 277 277 278 279 279 279 280 280 280 281 281 282 283 284 285 285 286 287 288 288 289 290 290 291 291 292 292 293 294 294 295 295 296 296 297 297 297 298 298
276 276 277 278 278 279 280 280 280 281 281 282 282 282 283 283 284 285 285 286 287 287 288 288 289 289 290 291 291 292 292 293 293 294 294 294 295 295 296 296 296 296
277 277 278 278 279 279 280 280 281 282 282 283 283 284 284 285 285 285 286 287 287 288 288 288 289 289 290 291 291 291 292 292 293 293 293 293 294 294 294 294 295 295
277 277 278 278 279 279 280 280 281 282 282 283 284 284 285 285 286 286 287 287 288 288 289 289 290 290 290 291 291 291 292 292 292 292 292 293 293 293 293 293 293 294
277 277 278 279 279 280 280 281 281 282 282 283 283 284 284 285 286 286 287 287 288 288 289 289 290 290 290 290 290 291 291 291 291 291 291 292 292 292 293 293 293 294
278 278 279 279 280 280 281 281 281 282 282 283 283 284 284 285 286 286 287 287 288 288 289 289 290 290 290 290 290 290 291 291 291 291 291 291 292 292 293 293 293 294
279 280 280 280 281 281 281 282 282 282 282 283 283 284 285 285 286 286 287 287 288 288 289 289 289 289 289 290 290 290 291 291 291 291 291 292 292 292 292 293 293 293
280 280 280 281 281 281 282 282 282 283 283 284 285 285 286 286 287 287 287 288 288 289 289 289 289 289 289 290 290 291 291 291 292 292 292 292 292 292 292 292 292 292
280 280 281 281 281 282 282 282 283 284 284 285 286 286 287 288 288 289 289 289 290 290 290 290 290 291 291 291 291 291 291 291 291 291 291 291 291 291 291 292 292 292
281 281 282 282 282 282 283 283 284 284 285 286 287 288 288 289 289 290 290 290 290 290 291 291 291 291 291 290 290 290 290 290 290 290 291 291 291 291 291 291 291 291
282 282 283 283 283 284 284 285 285 286 286 287 288 288 288 289 289 289 289 289 290 290 290 290 290 290 289 289 289 289 289 289 290 290 290 290 290 290 290 290 290 290
283 283 283 284 284 285 285 285 286 286 287 287 288 288 288 288 289 289 289 289 289 289 289 289 289 288 288 288 288 288 288 288 288 288 288 289 289 289 289 289 289 290
283 284 284 284 285 285 286 286 286 287 287 287 288 288 288 288 288 288 288 288 288 288 288 288 288 288 288 288 288 288 288 288 288 288 288 289 289 289 289 289 289 289
284 284 284 285 285 286 286 287 287 288 288 288 289 289 289 289 289 288 288 288 288 288 288 288 288 288 288 288 288 288 288 288 289 289 289 289 289 289 289 290 290 290
284 284 285 286 286 287 288 288 289 289 290 290 290 290 290 290 290 290 289 289 289 289 289 289 288 288 288 288 288 288 289 289 290 290 290 290 290 290 290 290 290 290
284 285 286 287 287 288 289 289 290 290 291 291 291 291 291 291 291 290 290 290 289 289 288 288 288 287 288 288 288 289 290 290 290 291 291 291 291 291 291 291 290 290
285 286 287 288 289 289 290 290 291 291 291 292 292 291 291 291 290 289 289 289 288 287 287 287 287 288 288 289 290 291 291 291 292 292 292 292 292 292 291 291 291 291
286 287 287 288 289 289 290 290 291 291 291 291 291 290 289 289 289 288 288 287 287 287 287 288 289 289 291 291 292 293 293 293 293 293 293 293 292 292 292 292 292 292
Height
10808 10808 10807 10807 10805 10804 10802 10801 10799 10798 10796 10794 10791 10788 10785 10784 10782 10781 10780 10778 10776 10773 10770 10767 10763 10760 10759 10757 10755 10753 10750 10746 10743 10740 10737 10733 10728 10725 10722 10716 10710 10706
10800 10800 10799 10798 10797 10796 10794 10793 10792 10790 10788 10786 10784 10781 10778 10776 10774 10773 10772 10771 10768 10766 10763 10759 10755 10752 10750 10748 10746 10743 10740 10736 10733 10731 10728 10725 10720 10716 10713 10709 10703 10697
10793 10792 10792 10791 10789 10787 10786 10785 10784 10782 10780 10778 10776 10773 10771 10768 10766 10765 10764 10763 10760 10758 10756 10752 10748 10744 10742 10740 10737 10734 10730 10727 10723 10721 10719 10716 10711 10706 10703 10699 10695 10689
10786 10785 10784 10783 10781 10780 10778 10777 10775 10773 10771 10770 10767 10765 10763 10760 10758 10756 10755 10754 10752 10750 10748 10744 10740 10736 10733 10731 10728 10725 10722 10717 10714 10711 10708 10706 10702 10697 10693 10689 10685 10680
10779 10778 10777 10775 10774 10773 10772 10770 10767 10765 10763 10761 10759 10757 10754 10751 10749 10747 10746 10745 10744 10742 10739 10736 10731 10728 10724 10722 10719 10716 10712 10708 10705 10701 10698 10695 10692 10688 10683 10679 10675 10670
10770 10770 10769 10768 10766 10765 10764 10763 10760 10759 10756 10754 10752 10749 10746 10743 10740 10738 10736 10736 10736 10734 10731 10727 10723 10719 10715 10712 10710 10707 10703 10698 10695 10691 10688 10684 10681 10678 10674 10669 10665 10660
10761 10761 10760 10759 10758 10757 10756 10754 10753 10752 10750 10747 10745 10742 10738 10735 10732 10730 10728 10727 10727 10725 10722 10718 10714 10710 10706 10703 10700 10697 10693 10688 10684 10681 10678 10673 10670 10668 10664 10659 10654 10649
10753 10752 10751 10750 10749 10747 10746 10745 10744 10743 10741 10739 10737 10734 10731 10728 10724 10721 10719 10718 10717 10715 10712 10709 10705 10701 10697 10694 10690 10687 10683 10679 10674 10670 10667 10663 10660 10657 10653 10648 10643 10639
10744 10743 10741 10740 10739 10737 10736 10735 10733 10732 10731 10729 10727 10725 10722 10719 10716 10713 10711 10709 10707 10705 10702 10699 10696 10692 10688 10684 10681 10677 10674 10669 10664 10660 10657 10654 10650 10646 10642 10637 10632 10628
10734 10733 10732 10731 10729 10728 10726 10724 10722 10721 10720 10718 10717 10714 10712 10709 10707 10704 10701 10699 10698 10695 10692 10689 10686 10682 10678 10674 10671 10667 10664 10660 10655 10650 10647 10644 10641 10636 10632 10627 10622 10617
10724 10724 10723 10722 10720 10718 10717 10714 10713 10711 10709 10708 10706 10704 10702 10699 10696 10694 10691 10689 10687 10684 10681 10678 10675 10672 10668 10664 10660 10657 10654 10650 10646 10640 10635 10632 10631 10627 10621 10617 10611 10606
10714 10713 10712 10711 10710 10709 10707 10705 10703 10701 10699 10697 10695 10693 10691 10688 10685 10683 10680 10678 10676 10673 10670 10667 10664 10661 10657 10653 10649 10645 10642 10639 10635 10630 10624 10619 10617 10615 10610 10606 10600 10595
10704 10703 10702 10701 10700 10698 10697 10695 10693 10691 10689 10686 10684 10682 10680 10677 10675 10672 10669 10667 10665 10662 10659 10656 10653 10650 10645 10641 10637 10633 10630 10627 10624 10619 10614 10609 10604 10601 10597 10593 10588 10583
10693 10693 10692 10690 10689 10688 10686 10684 10682 10680 10678 10676 10674 10672 10669 10667 10665 10662 10659 10656 10653 10650 10648 10645 10642 10638 10633 10628 10624 10621 10618 10615 10611 10607 10603 10598 10593 10589 10584 10580 10575 10570
10682 10682 10681 10679 10678 10676 10674 10672 10670 10668 10667 10665 10663 10661 10659 10656 10654 10651 10648 10645 10642 10638 10635 10633 10630 10626 10621 10616 10611 10608 10605 10601 10598 10594 10590 10586 10581 10577 10572 10567 10563 10558
10671 10671 10670 10668 10667 10665 10663 10661 10659 10657 10655 10653 10651 10649 10647 10645 10643 10640 10636 10633 10630 10626 10622 10619 10616 10612 10608 10604 10599 10595 10590 10586 10583 10579 10575 10571 10567 10563 10558 10554 10549 10544
10660 10660 10659 10658 10656 10654 10652 10650 10648 10646 10644 10642 10640 10638 10635 10632 10629 10626 10623 10619 10616 10612 10608 10604 10600 10597 10593 10589 10586 10581 10577 10573 10569 10565 10562 10557 10553 10549 10544 10540 10535 10530
10649 10648 10647 10646 10645 10643 10640 10639 10636 10635 10633 10631 10629 10626 10623 10620 10616 10613 10609 10605 10602 10598 10594 10590 10586 10582 10578 10575 10571 10568 10564 10560 10556 10552 10548 10544 10539 10535 10530 10526 10521 10517
10638 10637 10635 10634 10633 10631 10629 10627 10625 10624 10622 10619 10617 10614 10611 10608 10604 10601 10597 10593 10589 10585 10581 10577 10573 10569 10565 10561 10558 10555 10551 10547 10543 10539 10535 10530 10526 10521 10517 10512 10508 10504
10626 10625 10623 10621 10621 10619 10617 10616 10614 10612 10610 10608 10605 10603 10599 10596 10592 10588 10585 10581 10577 10573 10568 10564 10560 10555 10552 10548 10544 10540 10536 10533 10530 10525 10521 10516 10512 10508 10503 10499 10495 10491
10614 10612 10611 10609 10608 10607 10605 10603 10602 10600 10598 10596 10593 10590 10586 10583 10579 10575 10571 10567 10563 10559 10554 10550 10545 10541 10537 10534 10530 10526 10522 10518 10514 10510 10506 10502 10498 10494 10490 10485 10482 10478
10602 10600 10598 10597 10596 10594 10593 10591 10588 10586 10584 10582 10580 10576 10572 10568 10564 10560 10556 10552 10548 10543 10539 10535 10530 10525 10521 10517 10513 10510 10506 10503 10499 10495 10492 10488 10484 10480 10476 10472 10469 10465
10589 10587 10585 10584 10583 10581 10580 10577 10575 10572 10570 10567 10564 10561 10556 10552 10548 10544 10540 10536 10532 10527 10522 10518 10513 10509 10505 10501 10498 10495 10491 10488 10484 10481 10478 10474 10470 10466 10463 10459 10456 10452
10577 10574 10572 10571 10570 10568 10566 10563 10560 10558 10555 10552 10548 10545 10540 10536 10532 10528 10524 10520 10515 10511 10506 10501 10496 10492 10489 10486 10483 10480 10477 10473 10470 10466 10464 10460 10457 10453 10450 10446 10442 10438
10565 10562 10560 10558 10556 10554 10551 10549 10546 10543 10540 10536 10533 10529 10525 10520 10516 10512 10508 10504 10500 10495 10491 10486 10481 10478 10474 10471 10469 10466 10463 10459 10456 10453 10450 10446 10443 10440 10436 10432 10429 10425
10553 10551 10548 10546 10543 10541 10538 10535 10532 10529 10526 10522 10518 10514 10509 10505 10501 10497 10493 10489 10485 10480 10476 10472 10468 10465 10461 10459 10457 10454 10451 10447 10444 10441 10437 10434 10431 10427 10424 10420 10417 10414